Flag for U.S.A. Weather past 2 weeks in Colorado Springs, Colorado, U.S.A.

Now
63 °F

Overcast.


Feels Like: 63 °F
Forecast: 54 / 69 °F
Wind: 3 mph from South

Location: City Of Colorado Springs Municipal Airport

Current Time: Jul 31, 2014 at 10:29:25 PM

Latest Report: Jul 31, 2014 at 9:54 PM


Visibility: 10 mi

Pressure: 30.18 "Hg

Humidity: 78%

Dew point: 56 °F

Location of Colorado SpringsLocation

Historic Weather in Colorado Springs — Graph

°F

Colorado Springs temperature yesterday

Maximum temperature yesterday: 61 °F (at 11:54 AM)
Minimum temperature yesterday: 56 °F (at 11:54 PM)
Average temperature yesterday: 59 °F

Past Weeks' High & Low Weather Summary

 TemperatureHumidityPressure
High94 °F (Jul 24, 3:54 PM)97% (Jul 17, 2:54 AM)30.37 "Hg (Jul 17, 2:54 AM)
Low50 °F (Jul 17, 5:54 AM)15% (Jul 20, 3:54 PM)29.76 "Hg (Jul 24, 4:54 PM)
Average70 °F58%30.01 "Hg
* Reported Jul 16 8:54 PM — Jul 31 8:54 PM, Colorado Springs, Weather by CustomWeather, © 2014

Note: Actual official high and low records may vary slightly from our data, if they occured in-between our weather recording intervals... More about our weather records

Advertising

Colorado Springs weather history for previous 24 hours

 ConditionsComfort  
Time TempWeatherWind HumidityBarometerVisibility
8:54 PM
Jul 31
63 °FPartly sunny.3 mph78%30.16 "Hg10 mi
7:54 PM63 °FPartly sunny.7 mph78%30.15 "Hg10 mi
6:54 PM65 °FPartly sunny.3 mph68%30.14 "Hg10 mi
5:54 PM66 °FPartly sunny.5 mph65%30.13 "Hg10 mi
4:54 PM66 °FMostly cloudy.5 mph65%30.14 "Hg10 mi
3:54 PM65 °FBroken clouds.3 mph70%30.15 "Hg9 mi
2:54 PM65 °FBroken clouds.No wind68%30.17 "Hg10 mi
1:54 PM62 °FMostly cloudy.No wind75%30.19 "Hg10 mi
12:54 PM59 °FDrizzle. More clouds than sun.5 mph87%30.22 "Hg7 mi
11:54 AM58 °FLight rain. More clouds than sun.7 mph90%30.24 "Hg8 mi
10:54 AM58 °FLight rain. Fog.7 mph90%30.22 "Hg5 mi
9:54 AM57 °FLight rain. Fog.5 mph90%30.21 "Hg5 mi
8:54 AM57 °FFog.7 mph90%30.20 "Hg5 mi
7:54 AM56 °FLight rain. Fog.6 mph93%30.21 "Hg4 mi
6:54 AM56 °FFog.3 mph93%30.20 "Hg3 mi
5:54 AM56 °FFog.6 mph93%30.20 "Hg4 mi
4:54 AM57 °FFog.9 mph93%30.17 "Hg4 mi
3:54 AM56 °FFog.7 mph93%30.19 "Hg5 mi
2:54 AM57 °FMostly cloudy.No wind90%30.21 "Hg7 mi
1:54 AM57 °FOvercast.No wind87%30.22 "Hg9 mi
12:54 AM56 °FLight rain. Overcast.No wind90%30.23 "Hg8 mi
11:54 PM
Jul 30
56 °FLight rain. Fog.5 mph93%30.24 "Hg6 mi
10:54 PM57 °FLight rain. Mostly cloudy.6 mph90%30.25 "Hg8 mi
Weather by CustomWeather, © 2014

See weather overviewHow to use our weather pages